Alpena, MI

10:04 AM EST on January 22, 2018 (GMT -0500)
Alpena County Regional

Weather History for KAPN - July, 2013

Change the Weather History Date:

Monday, July 15, 2013

  Actual Average Record
Temperature  
Mean Temperature 76 °F 68 °F  
Max Temperature 89 °F 80 °F 98 °F (1983)
Min Temperature 62 °F 56 °F 39 °F (1987)
Degree Days  
Heating Degree Days 0 1  
Month to date heating degree days 21 25  
Since 1 June heating degree days 157 168  
Since 1 July heating degree days 21 25  
Cooling Degree Days 11 4  
Month to date cooling degree days 57 57  
Year to date cooling degree days 134 126  
Since 1 June cooling degree days 121 113  
Growing Degree Days 26 (Base 50)    
Moisture  
Dew Point 66 °F    
Average Humidity 72    
Maximum Humidity 97    
Minimum Humidity 47    
Precipitation  
Precipitation 0.00 in 0.10 in 1.46 in (2014)
Month to date precipitation 0.35 1.49  
Year to date precipitation 17.31 14.01  
Sea Level Pressure  
Sea Level Pressure 30.28 in    
Wind  
Wind Speed 4 mph (SSE)    
Max Wind Speed 14 mph    
Max Gust Speed 16 mph    
Visibility 10 miles    
Events      
T = Trace of Precipitation, MM = Missing Value Source: NWS Daily Summary

Daily Weather History Graph

Daily Weather History Graph

Search for Another Location

Airport or City:

Trip Planner

Search our weather history database for the weather conditions in past years. The results will help you decide how hot, cold, wet, or windy it might be!

Date:

Astronomy

Jul. 15, 2013 Rise Set
Actual Time 6:01 AM EDT 9:18 PM EDT
Civil Twilight 5:25 AM EDT 9:54 PM EDT
Nautical Twilight 4:39 AM EDT 10:40 PM EDT
Astronomical Twilight 3:40 AM EDT 11:38 PM EDT
Moon 1:43 PM EDT (7/15) 12:09 AM EDT (7/15)
Length of Visible Light 16h 28m
Length of Day
15h 16m
Waxing Crescent, 45% of the Moon is Illuminated
Jul 15
Waxing Crescent
Jul 15
First Quarter
Jul 22
Full
Jul 29
Last Quarter
Aug 6
New

Hourly Weather History & Observations

Time (EDT) Temp. Heat Index Dew Point Humidity Pressure Visibility Wind Dir Wind Speed Gust Speed Precip Events Conditions
12:54 AM 70.0 °F - 63.0 °F 78% 30.26 in 10.0 mi Calm Calm - N/A   Clear
1:54 AM 70.0 °F - 64.0 °F 81% 30.26 in 10.0 mi SW 6.9 mph - N/A   Clear
2:54 AM 70.0 °F - 64.0 °F 81% 30.26 in 10.0 mi SW 5.8 mph - N/A   Clear
3:54 AM 68.0 °F - 64.0 °F 87% 30.26 in 10.0 mi Calm Calm - N/A   Clear
4:54 AM 66.0 °F - 64.0 °F 93% 30.27 in 10.0 mi Calm Calm - N/A   Clear
5:54 AM 64.9 °F - 62.1 °F 90% 30.28 in 10.0 mi Calm Calm - N/A   Clear
6:54 AM 66.0 °F - 64.0 °F 93% 30.29 in 8.0 mi Calm Calm - N/A   Clear
7:54 AM 73.0 °F - 66.9 °F 81% 30.30 in 10.0 mi West 3.5 mph - N/A   Clear
8:54 AM 80.1 °F 82.3 °F 66.9 °F 64% 30.30 in 10.0 mi West 4.6 mph - N/A   Clear
9:54 AM 84.0 °F 86.5 °F 66.9 °F 56% 30.30 in 10.0 mi West 5.8 mph - N/A   Clear
10:54 AM 86.0 °F 88.8 °F 66.9 °F 53% 30.29 in 10.0 mi WNW 6.9 mph - N/A   Clear
11:54 AM 87.1 °F 89.9 °F 66.9 °F 51% 30.30 in 10.0 mi North 3.5 mph - N/A   Mostly Cloudy
12:54 PM 89.1 °F 91.3 °F 66.0 °F 46% 30.29 in 10.0 mi NE 6.9 mph - N/A   Mostly Cloudy
1:54 PM 87.1 °F 89.2 °F 66.0 °F 49% 30.28 in 10.0 mi East 8.1 mph - N/A   Scattered Clouds
2:54 PM 84.9 °F 87.1 °F 66.0 °F 53% 30.29 in 10.0 mi SE 10.4 mph - N/A   Mostly Cloudy
3:54 PM 86.0 °F 87.6 °F 64.9 °F 49% 30.28 in 10.0 mi ESE 10.4 mph - N/A   Clear
4:54 PM 82.9 °F 85.0 °F 66.0 °F 56% 30.28 in 10.0 mi ESE 6.9 mph - N/A   Mostly Cloudy
5:54 PM 84.9 °F 87.6 °F 66.9 °F 55% 30.27 in 10.0 mi ESE 5.8 mph - N/A   Clear
6:54 PM 82.9 °F 85.4 °F 66.9 °F 58% 30.26 in 10.0 mi ESE 9.2 mph - N/A   Clear
7:54 PM 81.0 °F 83.0 °F 66.0 °F 60% 30.26 in 10.0 mi ESE 5.8 mph - N/A   Clear
8:54 PM 77.0 °F - 68.0 °F 74% 30.26 in 10.0 mi SSE 4.6 mph - N/A   Clear
9:54 PM 73.9 °F - 69.1 °F 85% 30.26 in 10.0 mi Calm Calm - 0.00 in   Clear
10:54 PM 72.0 °F - 68.0 °F 87% 30.27 in 10.0 mi Calm Calm - N/A   Clear
11:54 PM 70.0 °F - 68.0 °F 93% 30.27 in 9.0 mi Calm Calm - N/A   Clear